www.pogodaiklimat.ru

Погода и климат >> Архив погоды >> Индия >> Гуджарат >> Налия


ПОГОДА в Налии

  • Прогноз погоды в Налии
  • Монитор погоды в Налии

АРХИВ ПОГОДЫ в Налии

Время (UTC), дата Ветер
(напр.,м/с)
 
Видим.   Явления Облачность Т
(С)
Тd
(С)
f
(%)
Тe
(С)
Тes
(С)
Комфортность P
(гПа)
Po
(гПа)
Тmin
(С)
Tmax
(С)
R
(мм)
R24
(мм)
S
(см)
09 10.09 З 2 10 км 8/4 600 м
[Sc Ac cast]
+32.4 +28.9 82 +56 +61 опасность
перегрева
1001.2 998.9
12 10.09 З 2 10 км 4/4 600 м
[Sc]
+31.0 +27.4 81 +49 +51 опасность
перегрева
1001.0 998.6 +32.8
15 10.09 штиль 0 4000 м 4/3 600 м
[Sc Ac cuf]
+29.4 +26.0 82 +44 +44 опасность
перегрева
1002.0 999.6
18 10.09 штиль 0 4000 м 1/1 600 м
[Sc]
+28.6 +25.8 85 +43 +43 опасность
перегрева
1003.9 1001.5
21 10.09 З 2 4000 м 3/3 600 м
[Sc]
+28.2 +25.4 85 +41 +41 опасность
перегрева
1002.8 1000.4
00 11.09 штиль 0 4000 м 5/3 600 м
[Sc Ac cuf]
+28.0 +25.2 85 +41 +41 опасность
перегрева
1002.9 1000.5
03 11.09 штиль 0 4000 м 6/4 600 м
[Sc Ac cast]
+28.6 +26.4 88 +44 +46 опасность
перегрева
1004.5 1002.1 +27.4
06 11.09 З 2 10 км 8/4 600 м
[Sc Ac cuf]
+31.0 +27.4 81 +49 +55 опасность
перегрева
1005.2 1002.8
09 11.09 ЮЗ 3 10 км 8/3 600 м
[Sc Ac cuf]
+31.6 +26.9 76 +49 +54 опасность
перегрева
1003.8 1001.4
12 11.09 З 2 10 км 5/1 600 м
[Cu hum Ac cuf]
+31.2 +26.8 78 +49 +50 опасность
перегрева
1003.1 1000.7 +32.0
15 11.09 штиль 0 4000 м 4/1 600 м
[Sc Ac cuf]
+29.6 +25.4 78 +43 +43 опасность
перегрева
1004.2 1001.8
18 11.09 штиль 0 4000 м 5/1 600 м
[Sc Ac trans]
+28.2 +24.5 80 +40 +40 очень
душно
1006.0 1003.6
21 11.09 штиль 0 4000 м 1/1 600 м
[Sc]
+28.0 +24.9 83 +40 +40 очень
душно
1004.8 1002.4
00 12.09 штиль 0 4000 м 1/1 600 м
[Sc]
+27.6 +24.7 84 +39 +39 очень
душно
1004.7 1002.3
03 12.09 штиль 0 10 км 4/1 600 м
[Cu hum Ac cast]
+28.0 +25.4 86 +41 +44 опасность
перегрева
1006.0 1003.6 +26.8
06 12.09 З 3 10 км 5/3 600 м
[Sc Ac cast]
+31.6 +26.6 75 +49 +57 опасность
перегрева
1004.3 1001.9
09 12.09 З 4 10 км 8/4 600 м
[Sc Ac trans]
+31.0 +26.6 77 +47 +51 опасность
перегрева
1005.0 1002.6
12 12.09 З 3 10 км в посл. час дождь 6/4 600 м
[Cu hum Ac cuf]
+30.6 +27.0 81 +48 +49 опасность
перегрева
1004.1 1001.7 +32.2 0.4
15 12.09 ЮЗ 2 4000 м 3/3 600 м
[Sc]
+28.4 +25.0 82 +41 +41 опасность
перегрева
1005.7 1003.3 0.4
18 12.09 штиль 0 4000 м 4/1 600 м
[Sc Ac cast]
+27.8 +25.5 87 +41 +41 опасность
перегрева
1006.5 1004.1 0.4
21 12.09 штиль 0 4000 м 4/1 600 м
[Sc Ac cuf]
+27.4 +25.1 87 +39 +39 очень
душно
1005.6 1003.2 0.4
00 13.09 штиль 0 4000 м 3/3 600 м
[Sc]
+27.0 +25.0 89 +39 +39 очень
душно
1005.4 1003.0 0.4
03 13.09 штиль 0 4000 м 4/1 600 м
[Sc Ac lent]
+28.2 +26.2 89 +43 +46 опасность
перегрева
1006.4 1004.0 +26.4 0.4
06 13.09 З 2 10 км 8/5 600 м
[Sc Ac trans]
+30.8 +26.6 78 +47 +53 опасность
перегрева
1007.3 1004.9
09 13.09 З 2 10 км 8/5 600 м
[Sc Ac trans]
+31.0 +25.1 71 +45 +50 опасность
перегрева
1005.4 1003.0
12 13.09 З 2 4000 м 9/5 600 м
[Sc Ac trans]
+30.0 +25.5 77 +44 +45 опасность
перегрева
1004.7 1002.3 +31.6
15 13.09 штиль 0 4000 м 5/3 600 м
[Sc Ac trans]
+29.0 +24.7 78 +41 +41 опасность
перегрева
1006.0 1003.6
18 13.09 штиль 0 4000 м 5/5 600 м
[Sc]
+28.6 +25.2 82 +42 +42 опасность
перегрева
1006.6 1004.2
21 13.09 штиль 0 4000 м 6/3 600 м
[Sc As op]
+28.0 +24.6 82 +40 +40 очень
душно
1005.3 1002.9
00 14.09 штиль 0 4000 м 3/3 600 м
[Sc]
+27.8 +24.3 81 +39 +39 очень
душно
1005.1 1002.7
03 14.09 штиль 0 10 км 3/1 600 м
[Sc Ac trans]
+28.8 +25.1 80 +42 +45 опасность
перегрева
1006.9 1004.5 +26.5
06 14.09 З 2 10 км 6/6 600 м
[Sc]
+30.6 +25.2 73 +44 +52 опасность
перегрева
1007.6 1005.2
09 14.09 З 2 10 км 8/5 600 м
[Sc Ac trans]
+30.8 +24.8 70 +44 +49 опасность
перегрева
1005.8 1003.4
12 14.09 З 2 4000 м 10/4 600 м
[Sc As op]
+30.0 +25.5 77 +44 +44 опасность
перегрева
1005.5 1003.1 +31.6
15 14.09 штиль 0 4000 м 10/5 600 м
[Sc Ac trans]
+28.8 +24.8 79 +41 +41 опасность
перегрева
1006.7 1004.3
18 14.09 штиль 0 4000 м 10/5 600 м
[Sc As op]
+28.4 +25.0 82 +41 +41 опасность
перегрева
1007.5 1005.1
21 14.09 штиль 0 4000 м 5/1 600 м
[Sc Ac trans]
+27.8 +24.3 81 +39 +39 очень
душно
1005.9 1003.5
00 15.09 штиль 0 4000 м 3/3 600 м
[Sc]
+27.4 +24.2 83 +38 +38 очень
душно
1006.0 1003.6
03 15.09 З 2 10 км 5/3 600 м
[Sc Ac trans]
+28.4 +25.0 82 +41 +43 опасность
перегрева
1007.9 1005.5 +26.8
06 15.09 З 2 10 км 8/4 600 м
[Sc Ac trans]
+30.4 +25.3 74 +44 +50 опасность
перегрева
1008.5 1006.1
09 15.09 З 2 10 км 8/4 600 м
[Sc Ac trans]
+31.0 +25.1 71 +45 +50 опасность
перегрева
1006.5 1004.1
12 15.09 З 2 10 км 4/4 600 м
[Sc]
+30.8 +24.5 69 +43 +45 опасность
перегрева
1006.2 1003.8 +31.4
15 15.09 З 2 4000 м 6/6 600 м
[Sc]
+28.8 +24.8 79 +41 +41 опасность
перегрева
1006.8 1004.4
18 15.09 штиль 0 4000 м 3/3 600 м
[Sc Ac trans]
+28.0 +24.3 80 +39 +39 очень
душно
1007.1 1004.7
21 15.09 штиль 0 4000 м 3/3 600 м
[Sc]
+28.0 +24.6 82 +40 +40 очень
душно
1006.3 1003.9
00 16.09 штиль 0 4000 м 3/3 600 м
[Sc]
+28.0 +24.9 83 +40 +40 очень
душно
1006.0 1003.6
03 16.09 З 2 10 км 3/1 600 м
[Sc Ac trans]
+29.0 +25.3 80 +42 +45 опасность
перегрева
1007.2 1004.8 +26.8
06 16.09 З 2 10 км 8/8 600 м
[Sc]
+31.0 +24.7 69 +44 +47 опасность
перегрева
1007.6 1005.2
09 16.09 З 2 10 км 6/6 600 м
[Sc]
+31.4 +24.3 66 +44 +50 опасность
перегрева
1005.6 1003.2
12 16.09 З 2 10 км 6/6 600 м
[Sc]
+30.2 +25.3 75 +44 +45 опасность
перегрева
1004.5 1002.1 +31.6
15 16.09 штиль 0 4000 м 3/3 600 м
[Sc]
+29.0 +25.0 79 +42 +42 опасность
перегрева
1004.9 1002.5
18 16.09 штиль 0 4000 м 1/1 600 м
[Sc]
+27.6 +24.4 83 +39 +39 очень
душно
1005.6 1003.2
21 16.09 штиль 0 4000 м ясно +27.0 +23.8 83 +37 +37 очень
душно
1004.5 1002.1
00 17.09 штиль 0 4000 м ясно +26.8 +23.9 84 +37 +37 очень
душно
1004.6 1002.2
03 17.09 штиль 0 10 км 1/0 2000 м
[Ac trans]
+28.2 +24.8 82 +40 +44 очень
душно
1006.1 1003.7 +25.8

 

Местоположение метеостанции Налия (Гуджарат, Индия): широта 23.25 долгота 68.85 высота над уровнем моря 21 м.

В архиве по умолчанию представлена погода в Налии за последнюю неделю. Архивные данные за месяц целиком и за предыдущие месяцы, начиная с января 2011 года, Вы можете получить, выбрав интересующий диапазон дат из раскрывающегося списка и нажав кнопку "Ввод!".


*Определитесь, кто Вы:
робот инопланетянин человек

Внимание! Время в таблицах - всемирное. Для получения местного времени необходимо прибавить поправку, которая равна 5.5 ч.

Смотрите также архив погоды в соседних городах и на ближайших метеорологических станциях:

Погода в Мандви (Гуджарат, Индия) (64 км)
Погода в Бхудже (Гуджарат, Индия) (84 км)
Погода в Охе (Гуджарат, Индия) (90 км)
Погода в Дварке (Гуджарат, Индия) (101 км)
Погода в Кандле (Гуджарат, Индия) (129 км)
Погода в Нью-Кандле (Гуджарат, Индия) (143 км)
Погода в Бадине (Пакистан) (154 км)
Погода в Митхи (Пакистан) (191 км)
Погода в Татте (Пакистан) (193 км)
Погода в Порбандаре (Гуджарат, Индия) (197 км)

Пояснения к столбцам:

Ветер - указаны скорость ветра в м/с - средняя за 10 мин, порывы в срок и между сроками (в фигурных скобках) и направление, откуда дует ветер: С - северный, СВ - северо-восточный, В - восточный, ЮВ - юго-восточный, Ю - южный, ЮЗ - юго-западный, З - западный, СЗ - северо-западный.
Видимость - горизонтальная дальность видимости в метрах или километрах. При видимости от 1 до 10 км при отсутствии осадков обычно наблюдается дымка, при ухудшении видимости до 1 км и менее - туман. В сухую погоду видимость может ухудшаться дымом, пылью или мглою.
Явления - указаны атмосферные явления, наблюдавшиеся в срок или в последний час перед сроком; фигурными скобками обозначены явления, наблюдавшиеся между сроками (за 1-3 часа до срока); квадратными скобками обозначены град или гололедные отложения с указанием их диаметра в мм.
Облачность - указаны через наклонную черту общая и нижняя облачность в баллах и высота нижней границы облаков в метрах; квадратными скобками обозначены формы облаков: Ci - перистые, Cs - перисто-слоистые, Cc - перисто-кучевые, Ac - высококучевые, As - высокослоистые, Sc - слоисто-кучевые, Ns - слоисто-дождевые, Cu - кучевые, Cb - кучево-дождевые. Подробнее классификацию облаков см. в Атласе облаков (PDF).
T - Температура воздуха - температура, измеренная на высоте 2 м над землей.
Td - Температура точки росы - температура, при понижении до которой содержащийся в воздухе водяной пар достигнет насыщения.
f - Относительная влажность воздуха - влажноcть воздуха, измеренная на высоте 2 м над землей.
Te - Эффективная температура - температура, которую ощущает одетый по сезону человек в тени. Характеристика душности погоды. При расчете учитывается влияние влажности воздуха и скорости ветра на теплоощущения человека.
Tes - Эффективная температура на солнце - температура, которую ощущает человек, с поправкой на солнечный нагрев. Характеристика знойности погоды. Зависит от высоты солнца над горизонтом, облачности и скорости ветра. Ночью, в пасмурную погоду, а также при ветре 12 м/с и более поправка равна нулю.
P - Атмосферное давление - приведенное к уровню моря атмосферное давление.
Po - Атмосферное давление - измеренное на уровне метеостанции атмосферное давление.
Tmin - Минимальная температура - минимум температуры воздуха на высоте 2 м над землей.
Tmax - Максимальная температура - максимум температуры воздуха на высоте 2 м над землей.
R - Количество осадков - Количество выпавших осадков за период времени, мм. При наведении курсора мыши на число - период времени, за который выпало указанное количество осадков.
R24 - Количество осадков - Количество выпавших осадков за 24 часа, мм.
S - Снежный покров - Высота снежного покрова, см. При наведении курсора мыши на число - состояние снежного покрова и степень покрытия местности в баллах.